Погода в Шологонцах

Россия / Республика Саха (Якутия)     66°14′55″N   114°17′20″E
темп.,
°C
ветер,
м/с
пор.,
м/с
влажн.,
%
обл.,
%
осадки,
мм/ч
давл.,
гПа
погр.,
м
19 сентября, вс
вс1900:000ссз3579100 0.0 1018356
03:000сз2389100 0.0 1018215
06:00−1сз1295100 0.2 1018146
09:000ссв237981 0.3 1018480
12:00+1с346389 0.0 1016889
15:00+3ссз335356 0.0 10161121
18:00+3ссв23475 0.0 10151083
21:00−1всв226410 0.0 101613
20 сентября, пн
пн2000:00−2вюв2276100 0.0 101522
03:00−3юв118323 0.0 101510
06:00−3юв2185100 0.0 101510
09:00−1ююв237383 0.0 1014187
12:00+2ю3554100 0.0 1012551
15:00+4ю454867 0.0 1011714
18:00+4ююв3556100 0.0 1011152
21:00+2юв2263100 0.0 101138
21 сентября, вт
вт2100:00+2ююв2264100 0.0 101041
03:00+2юв2265100 0.0 101050
06:00+1юв226792 0.0 101031
09:00+2юв2762100 0.0 1010268
12:00+3юв61059100 0.0 1009411
15:00+6юв71146100 0.0 1007678
18:00+5вюв8135191 0.0 1006641
21:00+3юв71459100 0.0 1007449
22 сентября, ср
ср2200:00+2юв5106897 0.0 1006256
03:00+3юв4969100 0.0 1006314
06:00+3ююв2275100 0.0 100686
09:00+3ю2586100 0.6 1008200
12:00+6з6863100 0.0 1010797
15:00+7з5649100 0.0 10111216
18:00+6зюз4753100 0.0 1013238
21:00+3юз3364100 0.0 101525
23 сентября, чт
чт2300:00+2юз3369100 0.0 101522
03:00+1ююз33757 0.0 101619
06:00−1юз348525 0.0 101866
09:00+1юз3972100 0.0 1018404
12:00+4зюз685426 0.0 1019833
15:00+6юз67435 0.0 10181392
18:00+5ююз474843 0.0 1020302
21:00+1ююз33625 0.0 102140